DW7281 Weather Reports


Display with metric or nautical units.
time (UTC)temp
F
wind
direction
speed
MPH
gust
MPH
rain 1hr
in
rain 24hr
in
rain mn
in
humidity
%
barometer
mb
20260904000135 75 0 1.0 10.0 0.00 0.00 0.00 42 1026.2
20260903234558 74 207 2.0 10.0 0.00 0.00 0.00 42 1026.5
20260903233101 73 0 0.0 6.0 0.00 0.00 0.00 44 1026.6
20260903231553 73 0 0.0 5.0 0.00 0.00 0.00 46 1026.6
20260903230050 72 175 2.0 7.0 0.00 0.00 0.00 48 1026.6
20260903224606 71 0 2.0 6.0 0.00 0.00 0.00 49 1026.7
20260903223051 70 259 1.0 6.0 0.00 0.00 0.00 50 1026.6
20260903221552 69 209 2.0 7.0 0.00 0.00 0.00 52 1026.5
20260903220111 68 213 0.0 7.0 0.00 0.00 0.00 53 1026.4
20260903214559 67 0 0.0 0.0 0.00 0.00 0.00 54 1026.2
20260903213050 65 0 0.0 0.0 0.00 0.00 0.00 56 1026.1
20260903211618 64 0 0.0 0.0 0.00 0.00 0.00 58 1025.7
20260903210059 61 0 0.0 0.0 0.00 0.00 0.00 63 1025.5
20260903204549 57 0 0.0 0.0 0.00 0.00 0.00 67 1025.2
20260903203056 56 0 0.0 0.0 0.00 0.00 0.00 68 1025.1
20260903201557 55 0 0.0 0.0 0.00 0.00 0.00 68 1025.0
20260903200054 55 0 0.0 0.0 0.00 0.00 0.00 68 1024.8
20260903194549 55 0 0.0 0.0 0.00 0.00 0.00 68 1024.6
20260903193056 55 0 0.0 0.0 0.00 0.00 0.00 68 1024.5
20260903191555 55 0 0.0 0.0 0.00 0.00 0.00 67 1024.4
20260903190058 55 0 0.0 0.0 0.00 0.00 0.00 66 1024.1
20260903184604 55 0 0.0 0.0 0.00 0.00 0.00 66 1023.9
20260903183057 55 0 0.0 0.0 0.00 0.00 0.00 66 1023.7
20260903181553 55 0 0.0 0.0 0.00 0.00 0.00 65 1023.5
20260903180106 56 0 0.0 0.0 0.00 0.00 0.00 64 1023.4
20260903174611 56 0 0.0 0.0 0.00 0.00 0.00 63 1023.4
20260903173106 56 0 0.0 0.0 0.00 0.00 0.00 62 1023.3
20260903171601 57 0 0.0 0.0 0.00 0.00 0.00 62 1023.2
20260903170110 57 0 0.0 0.0 0.00 0.00 0.00 61 1023.1
20260903164556 57 0 0.0 0.0 0.00 0.00 0.00 61 1023.3
20260903163052 58 0 0.0 0.0 0.00 0.00 0.00 60 1023.2
20260903161549 58 0 0.0 0.0 0.00 0.00 0.00 60 1023.3
20260903160055 59 0 0.0 0.0 0.00 0.00 0.00 59 1023.3
20260903154558 59 0 0.0 0.0 0.00 0.00 0.00 58 1023.4
20260903153059 60 0 0.0 0.0 0.00 0.00 0.00 56 1023.4
20260903151557 61 0 0.0 0.0 0.00 0.00 0.00 56 1023.4
20260903150111 61 0 0.0 0.0 0.00 0.00 0.00 55 1023.5
20260903144552 62 0 0.0 0.0 0.00 0.00 0.00 55 1023.5
20260903143055 62 0 0.0 0.0 0.00 0.00 0.00 53 1023.5
20260903141555 63 0 0.0 0.0 0.00 0.00 0.00 52 1023.6
20260903140057 63 0 0.0 0.0 0.00 0.00 0.00 51 1023.7
20260903134552 64 0 0.0 0.0 0.00 0.00 0.00 51 1023.5
20260903133054 64 0 0.0 0.0 0.00 0.00 0.00 50 1023.6
20260903131601 64 0 0.0 0.0 0.00 0.00 0.00 50 1023.5
20260903130112 64 0 0.0 0.0 0.00 0.00 0.00 49 1023.6
20260903124557 64 0 0.0 0.0 0.00 0.00 0.00 49 1023.8
20260903123058 65 0 0.0 0.0 0.00 0.00 0.00 48 1023.9
20260903121554 65 0 0.0 0.0 0.00 0.00 0.00 47 1023.9
20260903120055 66 0 0.0 0.0 0.00 0.00 0.00 47 1023.9
20260903114551 66 0 0.0 0.0 0.00 0.00 0.00 46 1023.9
20260903113056 67 0 0.0 0.0 0.00 0.00 0.00 46 1023.8
20260903111623 68 0 0.0 6.0 0.00 0.00 0.00 44 1023.7
20260903110110 68 213 2.0 6.0 0.00 0.00 0.00 44 1023.4
20260903104630 68 215 3.0 8.0 0.00 0.00 0.00 44 1023.5
20260903103051 68 0 0.0 0.0 0.00 0.00 0.00 44 1023.3
20260903101557 69 0 0.0 0.0 0.00 0.00 0.00 44 1023.2
20260903100056 69 0 0.0 0.0 0.00 0.00 0.00 43 1023.1
20260903094603 69 0 0.0 0.0 0.00 0.00 0.00 43 1023.0
20260903093056 70 0 0.0 0.0 0.00 0.00 0.00 43 1022.9
20260903091556 70 0 0.0 0.0 0.00 0.00 0.00 42 1022.8
20260903090055 71 0 0.0 0.0 0.00 0.00 0.00 41 1022.5
20260903084600 72 0 0.0 0.0 0.00 0.00 0.00 40 1022.4
20260903083057 72 0 0.0 0.0 0.00 0.00 0.00 39 1022.1
20260903081555 73 0 0.0 0.0 0.00 0.00 0.00 38 1022.0
20260903080057 75 0 0.0 0.0 0.00 0.00 0.00 37 1022.0
20260903074602 76 0 0.0 9.0 0.00 0.00 0.00 35 1022.0
20260903073148 77 210 4.0 9.0 0.00 0.00 0.00 34 1022.0
20260903071556 78 206 7.0 15.0 0.00 0.00 0.00 33 1021.9
20260903070051 78 190 6.0 15.0 0.00 0.00 0.00 33 1021.9
20260903064556 79 229 7.0 18.0 0.00 0.00 0.00 32 1021.7
20260903063055 80 246 8.0 18.0 0.00 0.00 0.00 32 1021.6
20260903061602 80 219 9.0 16.0 0.00 0.00 0.00 32 1021.6
20260903060104 80 223 6.0 14.0 0.00 0.00 0.00 33 1021.6
20260903054557 81 228 6.0 14.0 0.00 0.00 0.00 32 1021.6
20260903053108 81 232 5.0 17.0 0.00 0.00 0.00 33 1021.6
20260903051557 81 212 4.0 14.0 0.00 0.00 0.00 34 1021.7
20260903050055 82 207 6.0 13.0 0.00 0.00 0.00 34 1021.8
20260903044555 82 254 5.0 13.0 0.00 0.00 0.00 34 1021.7
20260903043059 82 232 7.0 21.0 0.00 0.00 0.00 34 1022.2
20260903041558 82 191 6.0 14.0 0.00 0.00 0.00 36 1022.2
20260903040106 81 188 6.0 15.0 0.00 0.00 0.00 36 1022.3
20260903034551 81 213 6.0 15.0 0.00 0.00 0.00 37 1022.6
20260903033055 81 198 8.0 17.0 0.00 0.00 0.00 36 1022.8
20260903031553 81 196 8.0 19.0 0.00 0.00 0.00 37 1022.9
20260903030109 81 188 9.0 18.0 0.00 0.00 0.00 37 1023.1
20260903024555 80 187 6.0 17.0 0.00 0.00 0.00 38 1023.2
20260903023050 80 223 8.0 16.0 0.00 0.00 0.00 36 1023.4
20260903021551 80 232 4.0 16.0 0.00 0.00 0.00 40 1023.7
20260903020053 78 227 4.0 14.0 0.00 0.00 0.00 42 1024.0
20260903014559 78 212 6.0 18.0 0.00 0.00 0.00 43 1024.2
20260903013057 78 229 5.0 16.0 0.00 0.00 0.00 42 1024.5
20260903011607 77 227 7.0 15.0 0.00 0.00 0.00 43 1024.7
20260903010109 76 245 6.0 16.0 0.00 0.00 0.00 45 1024.9
20260903004549 75 246 6.0 16.0 0.00 0.00 0.00 47 1025.2
20260903003058 75 360 8.0 15.0 0.00 0.00 0.00 47 1025.4
20260903001550 74 0 5.0 13.0 0.00 0.00 0.00 51 1025.6